Skip Page Navigation
NASA JPL Caltech
NASA Logo - Jet Propulsion Laboratory + View the NASA Portal
+ Center for Near-Earth Object Studies
JPL Home Earth Solar System Stars & Galaxies Technology
JPL Solar System Dynamics
BODIES ORBITS EPHEMERIDES TOOLS PHYSICAL DATA DISCOVERY FAQ SITE MAP
IMPORTANT: The SSD Announcement email list is now available. Major changes are coming in the near future, including possible hostname and/or URL changes. To be notified of such changes, subscribe to this email list.

Please visit this page for more details.


JPL Small-Body Database Browser
Search: [ help ]  
382454 (2000 QX67)
Classification: Main-belt Asteroid          SPK-ID: 2382454
Ephemeris | Orbit Diagram | Orbital Elements | Mission Design | Physical Parameters | Discovery Circumstances ]

[ show orbit diagram ]
Orbital Elements at Epoch 2458600.5 (2019-Apr-27.0) TDB
Reference: JPL 11 (heliocentric ecliptic J2000)
 Element Value Uncertainty (1-sigma)   Units 
e .1993125578869794 1.9238e-07  
a 2.574666580359847 3.874e-08 au
q 2.061503198522204 4.6923e-07 au
i 19.10665983226107 1.0383e-05 deg
node 358.6083501232872 2.6089e-05 deg
peri 29.28747343759215 3.6888e-05 deg
M 157.3804453082149 3.8154e-05 deg
tp 2457940.827788921652
(2017-Jul-06.32778892)
0.00014788 TDB
period 1508.967619980481
4.13
3.4058e-05
9.325e-08
d
yr
n .2385737077676039 5.3847e-09 deg/d
Q 3.08782996219749 4.6462e-08 au
  Orbit Determination Parameters
   # obs. used (total)      149  
   data-arc span      9158 days (25.07 yr)  
   first obs. used      1994-03-10  
   last obs. used      2019-04-06  
   planetary ephem.      DE431  
   SB-pert. ephem.      SB431-N16  
   condition code      0  
   norm. resid. RMS      .67843  
   source      ORB  
   producer      Otto Matic  
   solution date      2019-Jul-13 13:46:47  

Additional Information
 Earth MOID = 1.0788 au 
 Jupiter MOID = 2.43424 au 
 T_jup = 3.324 
[ show covariance matrix ]

Ephemeris | Orbit Diagram | Orbital Elements | Mission Design | Physical Parameters | Discovery Circumstances ]

Physical Parameter Table
Parameter Symbol Value Units Sigma Reference Notes
absolute magnitude H 16.2   n/a MPO434370  
diameter diameter 3.756 km 0.246 urn:nasa:pds:neowise_diameters_albedos::2.0[mainbelt] (http://adsabs.harvard.edu/abs/2011ApJ...741...68M)  
geometric albedo albedo 0.055   0.012 urn:nasa:pds:neowise_diameters_albedos::2.0[mainbelt] (http://adsabs.harvard.edu/abs/2011ApJ...741...68M)  

382454 (2000 QX67)          Discovered 2000-Aug-28 by LINEAR at Socorro
Reference: Last Updated: 2014-01-21
Ephemeris | Orbit Diagram | Orbital Elements | Mission Design | Physical Parameters | Discovery Circumstances ]
ABOUT SSD CREDITS/AWARDS PRIVACY/COPYRIGHT GLOSSARY LINKS
FirstGov
(server date/time)  
NASA Home Page
Site Manager:   Ryan S. Park
Webmaster  Alan B. Chamberlin